Location: Leedale
(52.5833°N, 114.4833°W)
Time: 07:31:25
(UTC+00:00)

Envisat - Visible Passes

Search period start: 05 June 2023 00:00
Search period end: 15 June 2023 00:00
Orbit: 763 x 765 km, 98.2° (Epoch: 04 June)

Date Brightness Start Highest point End Pass type
(mag) Time Alt. Az. Time Alt. Az. Time Alt. Az.
07 Jun 5.7 10:00:51 10° ENE 10:03:04 13° E 10:05:17 10° ESE visible
09 Jun 5.4 10:24:25 10° NE 10:28:09 20° E 10:31:51 10° SE visible
12 Jun 5.5 10:12:25 10° NE 10:15:33 16° E 10:18:40 10° SE visible
